Погода в Охотске

Погода в Охотске : погода сейчас, прогноз погоды и архив. Всё, что Вы хотите узнать о погоде в Охотске!

Хотите узнать прогноз погоды в Охотске? Тогда Вам сюда: Погода в Охотске

Поиск расширенной информации на нашем сайте:

Другие новости

Новости СМИ2

Главная страница сайта

Новости сайта

02.10.2013

Напоминаем, что на нашем новом сайте вы можете получить высокодетализированные прогнозы погоды по пунктам России, СНГ и мира (включающие важные для авиации метеовеличины, такие как направление и скорость ветра, видимость, явления погоды, количество и форма облачности, нижняя и верхняя граница облачности), а также ознакомиться с разнообразными материалами по авиационной метеорологии и подборкой полезных ссылок на эту тему.

Сайт Метеоцентр.Азия посвящён разработке технологий оптимизации авиаметеорологического обслуживания, включая проектирование и перспективное создание нескольких автоматизированных авиаметеорологических систем:
- система выпуска высокодетальных прогностических карт явлений погоды для нижнего воздушного пространства по России и ближнему зарубежью;
- система верификации прогнозов TAF (выпускаемых синоптиками официальных АМСГ РФ и ближнего зарубежья) и AUTOTAF (выпускаемых сайтом Метеоцентр.Азия) - выявление ошибок, онлайн-сопоставление с фактической погодой METAR, автоматическое внесение коррективов в прогнозы при резком отклонении фактической погоды от прогноза, подсчёт оправдываемости прогнозов по элементам и в целом;
- система обработки, анализа и отображения авиаметеорологической информации для применения провайдерами метеорологической информации.

Рекомендуем: Игры танки онлайн бесплатно здесь.

Погода в Охотске - сегодня

Время (UTC), дата Ветер
(°,м/с) 
Видим.   Явления Облачность Т
(°С)
Тd
(°С)
f(%) Тe
(°С)
Pmin
(гПа)
dP
(гПа)
Po
(мм)
O2
(г/м3)
Тmin Tmax R s Состояние
почвы
12 21.01.17 010 (С) 20000 м    ясно 
-24 -30.9 53 -31  1020.8  -0.4  765  340           
15 21.01.17 020 (С) 20000 м    ясно 
-24.9 -31.2 56 -32  1019.7  -1.1  764  341           
18 21.01.17 020 (С) 20000 м    3/0 средняя 
[Ac lent]
-24.7 -31.2 55 -32  1019.1  -0.6  764  340           
21 21.01.17 020 (С) 20000 м    ясно 
-25 -31.6 54 -32  1018.7  -0.4  763  341  -25.2      равномерный
мокрый или
старый снег
100% 
00 22.01.17 010 (С) 20000 м    1/0 верхняя 
[Ci fib]
-25.4 -31.8 55 -33  1018.3  -0.4  763  341  -25.8         
03 22.01.17 010 (С) 20000 м    1/0 верхняя 
[Ci fib]
-22.6 -30.3 49 -29  1017.5  -0.8  763  337           
06 22.01.17 010 (С) 20000 м    ясно 
-21.8 -30.6 45 -28  1016.8  -0.7  762  336           
09 22.01.17 020 (С) 20000 м    3/0 верхняя 
[Ci fib]
-23.7 -31.5 49 -28  1016.8  762  338    -21.5       
12 22.01.17 020 (С) 20000 м    1/0 верхняя 
[Ci fib]
-24.2 -31.8 49 -30  1016.1  -0.6  762  339           
15 22.01.17 030 (СВ) 20000 м    3/0 верхняя 
[Ci fib]
-24.9 -32.2 51 -31  1015.6  -0.5  761  339           
18 22.01.17 020 (С) 20000 м    3/0 верхняя 
[Ci fib]
-25.9 -32.8 52 -32  1015.1  -0.5  761  341           
21 22.01.17 020 (С) 20000 м    ясно 
-25.8 -32.9 51 -33  1014.5  -0.6  760  340  -26.3      равномерный
мокрый или
старый снег
100% 
00 23.01.17 010 (С) 20000 м    6/0 средняя, верхняя 
[Ac lent|Ci fib]
-25.7 -32.9 51 -33  1014.3  -0.2  760  340  -26.4         
03 23.01.17 360 (С) 20000 м    6/0 средняя, верхняя 
[Ac lent|Ci fib]
-23.5 -31.2 49 -28  1013.1  -1.2  759  337           
06 23.01.17 020 (С) 20000 м    3/0 верхняя 
[Ci fib]
-22.7 -31.2 46 -27  1012.6  -0.5  759  335           
09 23.01.17 020 (С) 20000 м    1/0 верхняя 
[Ci fib]
-23.5 -31.4 48 -31  1012.8  0.2  759  337    -22.1       
12 23.01.17 010 (С) 20000 м    3/0 верхняя 
[Ci fib]
-23.2 -30.9 49 -30  1013.2  0.3  759  336           
15 23.01.17 010 (С) 20000 м    4/0 верхняя 
[Ci fib]
-23.8 -31 52 -31  1013.1  0.1  759  337           
18 23.01.17 010 (С) 20000 м    3/0 верхняя 
[Ci fib]
-24.3 -31.1 53 -31  1012.9  -0.3  759  338           
21 23.01.17 360 (С) 20000 м    3/0 верхняя 
[Ci fib]
-24.8 -31.2 55 -31  1013.1  0.2  759  338  -24.8      равномерный
мокрый или
старый снег
100% 
00 24.01.17 010 (С) 20000 м    10/0 средняя, верхняя 
[Ac lent|Ci fib]
-24.5 -30.9 55 -31  1013.1  759  338  -25.1         
03 24.01.17 010 (С) 20000 м    10/0 средняя, верхняя 
[Ac lent|Ci sp]
-22.6 -29.9 51 -28  1012.2  -0.9  759  335           
06 24.01.17 010 (С) 20000 м    10/1 600 м средняя, верхняя 
[Sc|Ac lent|Ci fib]
-22.1 -29.9 49 -27  1011.5  -0.7  758  334           
09 24.01.17 360 (С) 20000 м    10/0 средняя, верхняя 
[Ac lent|Ci fib]
-24.9 -31 57 -28  1011.3  -0.2  758  338    -21.6       
12 24.01.17 360 (С) 20000 м    10/0 средняя, верхняя 
[Ac lent|Ci fib]
-25.8 -31.5 59 -29  1010.7  -0.6  757  339           
Время (UTC), дата Ветер
(°,м/с) 
Видим.   Явления Облачность Т
(°С)
Тd
(°С)
f(%) Тe
(°С)
Pmin
(гПа)
dP
(гПа)
Po
(мм)
O2
(г/м3)
Тmin Tmax R s Состояние
почвы

Для получения пояснительной информации подведите курсор к названию столбца.

ПОГОДА в Охотске - архив

Всё, что Вы хотите узнать о погоде в Охотске - удобно и подробно!

Выберите нужную дату (начиная с 1 января 2015* года) и нажмите кнопку "Найти".
Будут отображены архивные сводки погоды по пункту Охотск, начиная с указанной даты.


Отображать данные в формате CSV (для использования в таблицах Excel)


Внимание! Наш архив погоды предназначен исключительно для личного некоммерческого использования в познавательных целях. Если Вам необходимы официальные справки о состоянии погоды (для производственных, юридических, коммерческих и т.п. целей), обращайтесь в органы Росгидромета.

*Примечание: данная дата относится к архиву по метеостанциям СССР (Россия, СНГ, Балтия).
Архив по метеостанциям Зарубежной Европы и Азии (кроме Китая) хранится 10 дней, по другим регионам земного шара (Китай, Африка, Америка, Австралия, Океания) - 1 день.

Охотск - район местоположения метеостанции


Название, широта, долгота, высота метеостанции:
Охотск 59.4°ш. 143.2°д. 6 м над ур. моря [Российская Федерация]

Дополнительная информация

В oтличие oт бoльшинства пoгoдных сайтoв мы публикуем пoдрoбную метеoинфoрмацию в детальнoм прoфессиoнальнoм фoрмате.

Характеристики температуры и влажнoсти вoздуха измеряются на высoте 2 м в тени вдали oт зданий и деревьев.
Скoрoсть ветра измеряется на высoте 10 м (на урoвне рoста челoвека скoрoсть ветра ниже в 1.5-2 раза). Если метеoстанция нахoдится в гoрoде или в лесу, тo скoрoсть ветра занижена на 2-4 м/с пo сравнению с oткрытым местoм. Скoрoсть ветра над акватoриями крупных рек и oзёр, а также на вершинах хoлмoв на 2-5 м/с выше, чем в oбычных услoвиях.
Атмoсфернoе давление в разных тoчках местнoсти мoжет значительнo oтличаться oт давления на метеoстанции, в зависимoсти oт услoвий рельефа (при пoдъёме на 10 м давление пoнижается примернo на 1 мм рт.ст.).